Wind_Speed
45 42 39 36 33 31 28 27 25 25 24 24 23 23 25 26 26 28 29 30 33 33 33 34 33 32 31 32 33 34 35 37 38 39 41 39 38 38 37 40 40 42 43 44 45 46 47 47 48
48 45 41 37 36 35 34 31 29 28 27 26 25 25 25 25 26 29 31 31 32 30 29 28 28 28 29 30 31 34 35 37 41 39 36 34 33 33 34 36 37 40 40 39 38 37 40 43 44
52 47 44 39 37 37 37 33 32 31 29 26 25 24 24 25 26 29 31 31 29 25 24 23 24 25 28 29 32 34 35 38 33 31 29 29 30 31 33 35 37 37 35 35 36 36 36 36 37
53 51 48 43 39 36 37 34 31 28 26 25 24 24 21 23 25 27 29 28 23 22 22 24 26 28 28 31 33 32 32 31 30 29 31 31 30 31 33 34 34 34 33 30 27 26 25 26 26
51 50 48 45 42 37 36 34 29 26 25 24 24 24 23 24 26 25 26 23 22 22 24 23 25 27 30 31 32 31 30 30 31 32 33 35 33 34 35 34 32 31 28 23 22 21 22 24 23
50 48 46 44 42 36 36 34 29 27 27 24 23 24 25 27 27 24 22 22 22 23 24 24 25 29 30 32 32 30 30 33 35 35 36 37 38 36 34 31 30 27 24 20 19 20 21 22 24
54 48 46 44 38 37 36 31 31 29 28 25 24 25 26 28 27 24 23 21 21 22 23 24 26 30 31 32 34 33 35 36 35 36 37 37 40 40 37 32 28 23 20 20 19 20 21 22 24
50 48 46 42 38 40 37 32 32 31 28 23 24 26 27 28 26 25 23 23 22 23 25 26 28 32 34 34 37 38 39 39 38 38 40 40 42 42 38 33 31 25 23 22 20 21 21 23 24
56 48 46 42 43 42 36 33 34 32 25 24 26 28 28 27 27 26 25 24 25 27 28 29 30 33 35 37 38 40 41 42 42 42 42 43 44 44 40 34 32 28 26 25 24 23 21 22 26
49 49 44 44 45 40 36 36 36 29 26 29 31 31 28 28 28 28 27 28 29 29 30 31 32 35 36 37 40 41 42 44 44 45 44 44 45 45 42 35 32 29 29 28 26 25 24 24 24
48 53 44 45 37 37 38 39 34 30 29 34 34 33 29 30 29 29 29 31 31 32 33 33 35 37 38 40 41 42 43 43 45 46 45 45 45 45 42 37 33 30 30 29 30 29 28 28 27
52 48 44 46 40 37 41 41 35 33 34 37 37 35 32 31 32 32 31 33 33 34 35 36 37 41 41 41 43 44 44 44 45 46 47 46 44 44 42 37 34 33 32 32 33 32 31 31 31
56 54 50 53 47 45 45 43 37 36 37 39 37 34 32 32 34 34 33 34 34 35 37 39 40 43 44 45 46 46 45 46 45 47 47 47 44 43 41 36 33 33 34 35 33 33 33 32 32
52 56 55 53 52 51 49 45 40 37 40 40 38 37 35 34 35 35 36 36 37 37 40 41 42 44 46 47 47 48 49 49 47 48 49 48 45 44 40 35 32 31 33 33 35 36 36 37 37
62 54 62 59 60 52 50 47 42 40 42 42 39 37 36 36 36 37 38 39 39 40 43 44 45 47 48 49 50 50 51 51 50 49 50 48 45 45 42 35 33 31 32 33 36 38 39 41 41
76 74 68 69 59 53 51 48 44 42 42 43 43 41 39 38 38 39 41 42 42 43 45 46 48 49 51 53 52 52 54 51 51 51 51 50 49 47 43 38 35 33 34 36 36 38 39 43 44
68 64 61 68 56 52 52 49 47 46 45 44 44 44 42 41 43 43 43 44 45 46 47 49 51 52 55 54 55 53 55 53 52 51 53 51 49 49 43 39 38 36 36 37 39 40 42 45 47
73 65 69 66 60 56 54 50 49 49 49 49 49 47 46 46 46 46 45 45 47 49 50 53 54 56 58 58 59 57 56 56 54 52 51 52 51 48 43 39 38 38 40 42 44 46 47 49 51
76 75 72 66 63 59 58 54 53 51 53 52 51 51 51 51 48 47 47 48 49 52 53 56 58 59 59 62 62 61 60 59 57 54 53 53 52 47 42 41 42 44 46 48 50 51 52 52 56
79 76 73 69 65 62 60 58 55 55 56 55 55 56 55 53 50 49 50 51 53 55 58 59 61 62 64 64 64 64 62 60 59 58 56 55 52 49 48 46 47 48 50 52 54 57 60 62 62
80 78 76 72 68 64 63 61 59 59 60 59 60 59 58 55 53 52 53 55 58 60 62 63 65 67 67 65 65 64 62 62 61 60 59 58 54 53 53 54 54 56 58 60 61 61 60 61 63
84 81 78 74 72 68 67 66 63 63 65 64 63 63 62 58 55 56 57 60 62 64 65 65 69 70 68 67 67 66 65 64 64 63 61 59 59 61 62 62 62 61 61 60 60 61 62 64 64
86 84 82 80 76 73 71 69 68 66 68 68 66 66 64 63 62 62 63 64 66 67 68 70 71 69 69 70 71 69 65 65 65 64 62 63 65 64 63 62 61 60 60 63 65 67 67 66 70
88 86 85 83 81 77 76 74 69 72 71 70 69 68 67 65 66 67 67 68 70 71 73 73 72 72 73 74 71 67 66 65 64 65 66 65 65 65 65 65 65 66 66 67 70 71 74 77 80
86 86 86 84 82 79 77 79 73 72 74 74 71 70 70 70 71 70 71 73 74 75 75 74 74 75 76 72 69 66 65 66 67 67 66 67 67 69 68 70 72 74 76 78 78 80 83 85 87
87 88 87 86 83 79 78 77 73 73 72 72 73 74 73 73 75 74 75 76 77 77 76 76 77 78 73 69 67 67 68 67 68 68 69 69 71 72 76 78 81 83 84 86 89 90 93 95 97
85 85 84 82 81 80 78 75 75 74 75 74 72 73 75 75 75 76 77 79 78 77 77 78 78 73 70 67 68 68 68 70 72 71 73 76 79 81 84 88 91 94 96 97 98 98 99 102 102
75 76 78 78 74 74 73 72 75 74 76 77 76 76 76 77 78 79 80 78 78 79 79 77 72 68 68 68 68 70 71 71 73 76 79 82 84 87 90 93 96 99 103 107 109 109 111 112 112
76 76 77 79 75 74 74 75 76 76 77 79 78 77 80 80 79 78 78 78 79 79 74 70 68 68 66 68 69 72 74 75 77 80 83 87 90 93 97 99 102 106 110 114 117 118 119 119 120
76 76 78 79 75 75 74 72 73 76 77 77 77 78 78 78 76 78 79 79 75 71 69 69 66 67 67 70 72 74 76 77 79 83 85 88 91 95 101 105 110 114 118 120 122 123 126 128 129
Wind_Direction
239 239 240 238 239 240 242 248 251 254 258 263 270 271 275 279 283 285 287 285 283 282 280 278 278 283 288 293 294 296 298 299 297 295 295 293 290 287 283 282 281 278 276 273 270 268 265 264 262
238 238 238 236 238 243 245 249 251 254 259 263 270 273 280 284 287 290 290 287 288 287 285 287 291 294 296 298 300 300 299 298 298 297 295 293 290 286 284 282 280 278 279 277 270 264 262 261 259
235 236 237 237 238 240 244 246 250 256 258 263 266 276 282 284 288 290 290 289 288 291 296 300 301 302 300 300 299 297 296 300 303 303 304 302 296 292 286 283 281 279 275 271 268 262 258 258 257
233 233 236 239 241 239 239 241 246 251 256 257 266 277 278 286 286 287 289 288 293 297 301 301 302 301 301 303 303 302 303 304 309 312 313 312 304 299 294 286 281 280 271 268 261 259 255 254 253
229 231 234 236 239 236 239 240 244 249 254 259 273 276 283 284 285 286 288 290 296 299 303 302 302 305 304 306 306 303 302 309 314 314 317 317 312 308 299 294 288 280 269 258 255 262 263 260 259
226 228 229 233 236 231 236 239 243 248 256 262 272 276 283 282 283 284 286 286 292 297 301 305 310 308 308 310 309 309 308 312 314 317 320 321 319 315 307 297 287 276 263 252 257 261 265 269 268
227 228 229 233 231 229 237 239 247 251 260 265 273 275 278 278 279 280 286 286 291 299 303 305 311 312 313 314 312 312 311 314 315 316 318 320 321 320 313 301 287 270 255 255 266 278 276 276 272
234 227 229 229 229 238 237 239 246 253 259 268 269 270 271 272 274 280 285 287 292 297 301 303 307 312 314 316 314 311 312 311 314 314 316 318 320 319 315 300 288 271 258 261 268 275 278 277 275
224 226 223 223 229 237 236 239 245 256 259 264 265 264 266 264 269 278 283 287 288 296 297 302 306 309 311 312 311 310 309 310 313 312 314 317 318 319 314 301 286 275 261 262 269 272 274 282 280
226 228 224 221 225 232 237 237 244 251 255 258 258 261 258 260 268 276 282 284 288 295 298 304 306 306 306 309 308 308 308 308 309 310 312 315 317 318 312 300 285 275 263 262 271 275 277 280 285
214 223 228 224 229 235 230 236 243 248 252 250 254 257 252 257 265 272 279 285 292 296 298 301 304 305 305 305 306 305 304 306 308 309 310 312 315 316 312 300 286 274 264 262 268 273 276 283 286
209 216 222 230 235 231 230 239 242 248 246 247 253 255 253 255 262 270 276 281 291 296 297 295 301 308 303 304 304 303 304 305 307 308 309 311 315 316 312 299 288 280 267 262 263 267 271 276 283
206 211 226 236 234 234 236 238 241 244 245 247 250 252 254 257 264 269 274 280 287 293 293 295 301 305 304 302 304 302 301 301 304 306 309 312 315 316 312 300 292 283 278 268 265 268 273 278 286
205 206 225 228 231 236 233 233 239 244 244 246 250 254 256 258 264 267 273 280 286 289 290 295 300 301 303 302 301 301 299 299 302 304 307 310 313 314 312 301 291 284 279 274 270 273 276 280 284
205 212 219 218 227 228 226 233 237 241 243 246 248 251 254 258 265 271 273 278 285 289 290 296 298 298 300 303 300 304 302 299 300 302 305 309 310 311 311 299 290 282 277 275 273 274 277 279 280
212 213 216 219 224 224 228 232 238 242 244 247 249 251 256 262 268 273 275 280 284 289 291 295 298 298 300 303 304 304 304 302 299 300 301 306 307 310 308 299 289 283 277 276 276 275 276 279 281
213 220 224 219 223 229 228 234 238 242 245 248 250 253 256 263 270 272 275 279 283 288 291 292 296 297 301 304 304 303 304 302 299 299 299 304 308 310 306 298 289 285 282 280 278 280 282 281 282
215 219 218 220 228 231 233 237 240 243 247 250 253 256 259 266 269 273 275 277 283 287 290 293 297 299 301 303 303 303 304 301 298 297 299 304 307 308 303 299 293 288 287 286 285 284 285 286 285
216 218 221 226 228 231 234 238 240 244 248 252 256 259 262 268 267 273 277 280 283 287 290 293 297 297 299 301 302 304 305 303 300 299 299 303 306 304 298 295 292 290 288 287 287 287 287 285 287
217 220 224 227 228 231 235 239 243 246 250 254 257 260 265 267 267 273 277 280 284 287 290 293 297 298 299 302 304 305 304 302 299 299 300 302 302 299 297 293 291 290 289 290 290 289 289 288 288
219 221 225 228 230 232 236 240 243 246 251 255 257 262 266 266 268 274 277 281 284 288 291 295 297 299 299 303 304 302 300 298 298 299 300 301 299 297 295 294 293 291 291 290 290 290 290 290 291
219 222 226 229 232 233 237 240 243 248 253 254 257 263 267 266 271 276 279 281 285 288 292 295 296 299 301 300 301 298 296 298 299 299 300 299 299 298 299 300 300 301 300 299 296 295 295 294 294
219 222 226 228 232 235 238 241 245 249 252 255 259 264 265 265 271 277 280 284 286 289 292 295 297 298 297 298 299 297 298 297 298 299 301 300 301 303 302 302 303 302 300 300 300 298 298 299 301
222 224 227 231 233 236 239 242 246 250 250 254 261 264 265 268 273 278 283 285 287 290 293 294 296 295 297 297 297 295 296 297 298 300 299 301 301 303 303 303 302 301 302 302 302 302 303 302 301
225 228 230 233 236 238 241 244 246 250 253 258 261 261 264 269 274 279 282 285 288 290 292 293 294 295 296 295 295 295 296 297 298 298 300 301 303 302 302 303 303 304 304 303 303 303 301 299 298
227 230 233 235 237 239 242 246 247 251 256 259 261 263 267 272 276 281 285 287 288 289 290 290 293 294 294 293 294 296 298 298 298 299 301 300 302 301 303 304 305 304 302 301 301 301 300 299 298
229 231 234 237 239 242 244 246 250 254 256 258 260 265 270 274 278 282 283 284 285 287 288 290 292 292 292 293 295 297 297 298 300 301 302 303 304 304 305 306 305 304 303 303 301 299 299 298 296
229 233 236 238 241 243 245 247 251 253 258 261 265 269 272 275 278 279 280 283 284 286 288 291 290 290 291 293 294 296 298 300 301 302 303 305 306 307 307 306 306 306 304 304 303 302 301 300 298
228 232 238 241 242 246 248 248 251 256 261 265 268 271 274 276 276 278 281 282 285 287 288 287 287 289 290 293 296 297 299 302 303 305 306 306 307 306 306 307 308 307 306 306 305 302 300 298 297
229 232 237 243 246 244 246 250 255 261 264 268 270 270 272 274 277 278 281 283 284 284 284 286 287 289 292 295 298 298 301 304 306 306 306 306 306 307 307 308 308 309 308 304 304 302 301 299 295
Height
10840 10845 10849 10852 10856 10858 10862 10865 10867 10868 10870 10870 10871 10872 10873 10875 10875 10874 10873 10872 10870 10870 10870 10869 10870 10870 10870 10869 10868 10867 10866 10864 10862 10861 10859 10857 10856 10855 10853 10852 10851 10850 10849 10849 10849 10848 10846 10845 10845
10833 10839 10843 10846 10850 10852 10857 10861 10862 10864 10866 10866 10866 10867 10869 10869 10870 10867 10866 10865 10864 10864 10864 10864 10865 10865 10865 10864 10863 10862 10860 10858 10855 10853 10850 10849 10847 10846 10845 10844 10843 10841 10841 10839 10838 10837 10836 10835 10835
10825 10831 10836 10840 10843 10847 10851 10855 10857 10860 10862 10862 10862 10863 10864 10864 10865 10863 10861 10859 10859 10860 10860 10860 10860 10860 10860 10859 10858 10856 10853 10852 10849 10847 10845 10842 10841 10839 10838 10837 10835 10834 10832 10830 10828 10827 10826 10827 10828
10816 10823 10829 10834 10836 10840 10845 10849 10852 10855 10857 10858 10857 10858 10860 10860 10860 10859 10857 10855 10856 10856 10856 10856 10856 10856 10855 10854 10852 10850 10847 10846 10844 10841 10839 10837 10834 10832 10830 10828 10826 10825 10823 10822 10820 10820 10820 10820 10821
10808 10815 10822 10826 10830 10834 10838 10842 10846 10850 10853 10853 10852 10853 10855 10855 10856 10855 10853 10852 10852 10853 10852 10852 10851 10851 10850 10848 10846 10844 10841 10839 10837 10835 10832 10829 10827 10824 10821 10819 10817 10815 10814 10814 10813 10814 10814 10814 10814
10800 10808 10814 10819 10823 10827 10831 10836 10840 10844 10847 10848 10847 10848 10849 10849 10850 10851 10850 10849 10849 10849 10849 10848 10847 10845 10844 10843 10841 10838 10836 10834 10831 10828 10825 10822 10819 10815 10812 10810 10809 10808 10807 10807 10807 10807 10807 10807 10808
10793 10801 10807 10812 10816 10820 10826 10831 10834 10838 10841 10843 10843 10844 10844 10844 10845 10845 10845 10845 10846 10846 10845 10844 10843 10840 10839 10837 10835 10833 10830 10828 10825 10821 10818 10816 10812 10808 10804 10802 10801 10801 10801 10800 10800 10801 10801 10801 10801
10785 10795 10801 10805 10809 10815 10820 10825 10828 10831 10835 10837 10838 10839 10841 10839 10840 10840 10840 10840 10841 10841 10840 10839 10838 10835 10833 10831 10828 10825 10824 10822 10819 10816 10813 10810 10806 10802 10798 10796 10793 10793 10793 10794 10794 10795 10795 10794 10794
10778 10787 10793 10797 10803 10809 10814 10818 10821 10825 10828 10830 10832 10834 10836 10835 10836 10836 10835 10835 10836 10836 10835 10834 10832 10829 10827 10825 10822 10820 10817 10815 10813 10811 10807 10803 10800 10796 10793 10789 10787 10787 10787 10787 10787 10788 10788 10787 10787
10771 10780 10785 10789 10796 10803 10807 10811 10815 10819 10822 10824 10826 10829 10830 10831 10831 10831 10830 10830 10830 10831 10829 10828 10826 10823 10821 10819 10817 10814 10810 10808 10806 10804 10801 10796 10792 10789 10785 10783 10781 10780 10780 10780 10779 10780 10780 10781 10780
10764 10772 10777 10782 10791 10797 10800 10804 10809 10813 10817 10818 10821 10823 10825 10825 10826 10826 10825 10824 10824 10824 10823 10821 10820 10818 10816 10813 10810 10808 10804 10802 10799 10796 10793 10790 10786 10781 10777 10774 10773 10774 10774 10773 10772 10772 10773 10773 10773
10756 10763 10771 10775 10784 10790 10794 10799 10803 10806 10810 10812 10815 10817 10819 10820 10820 10820 10821 10820 10819 10818 10817 10815 10814 10812 10809 10806 10803 10800 10797 10793 10791 10788 10785 10782 10779 10775 10769 10766 10765 10765 10766 10767 10767 10767 10767 10766 10764
10749 10758 10764 10768 10777 10783 10787 10792 10796 10800 10803 10805 10808 10810 10812 10813 10814 10815 10815 10814 10814 10812 10810 10808 10807 10804 10802 10800 10797 10793 10790 10786 10784 10781 10778 10774 10771 10767 10763 10759 10757 10757 10757 10758 10759 10759 10759 10758 10757
10740 10748 10753 10760 10768 10775 10780 10785 10789 10794 10796 10798 10801 10804 10805 10806 10807 10808 10808 10808 10807 10805 10803 10801 10800 10797 10795 10792 10789 10786 10783 10779 10776 10773 10770 10767 10763 10760 10756 10753 10751 10750 10750 10750 10750 10750 10749 10748 10748
10726 10735 10740 10751 10759 10767 10772 10777 10782 10786 10788 10791 10793 10796 10798 10799 10799 10800 10800 10800 10799 10798 10795 10793 10791 10789 10786 10783 10780 10777 10774 10770 10767 10764 10762 10760 10756 10752 10749 10747 10745 10743 10741 10741 10742 10742 10741 10739 10739
10716 10722 10734 10743 10752 10758 10765 10768 10774 10778 10781 10783 10786 10789 10790 10791 10792 10792 10792 10792 10791 10790 10787 10785 10783 10780 10777 10774 10771 10767 10764 10760 10757 10755 10753 10751 10747 10744 10740 10737 10737 10735 10734 10733 10733 10732 10732 10729 10728
10713 10721 10729 10737 10745 10751 10757 10761 10766 10770 10773 10775 10778 10780 10782 10783 10784 10784 10784 10784 10783 10782 10780 10777 10774 10771 10768 10765 10762 10758 10754 10750 10747 10745 10742 10740 10737 10734 10731 10729 10727 10726 10725 10724 10723 10722 10719 10716 10715
10709 10713 10718 10728 10736 10743 10748 10753 10758 10762 10764 10767 10769 10772 10774 10775 10775 10775 10775 10775 10774 10772 10770 10767 10765 10762 10758 10755 10751 10747 10744 10739 10737 10734 10732 10729 10727 10724 10721 10719 10717 10716 10714 10712 10710 10709 10708 10704 10700
10694 10702 10711 10720 10728 10735 10740 10746 10749 10753 10755 10757 10761 10762 10764 10765 10766 10766 10766 10765 10764 10762 10760 10757 10755 10752 10749 10745 10741 10737 10733 10728 10725 10723 10720 10718 10715 10713 10711 10708 10706 10704 10702 10700 10698 10696 10693 10692 10689
10687 10697 10704 10711 10719 10725 10731 10736 10742 10744 10745 10748 10750 10752 10754 10755 10757 10757 10756 10754 10752 10751 10749 10747 10744 10741 10736 10733 10729 10725 10720 10716 10712 10709 10707 10705 10703 10701 10699 10696 10694 10692 10690 10687 10684 10680 10677 10674 10673
10681 10688 10693 10701 10709 10718 10723 10727 10732 10734 10736 10738 10739 10741 10743 10745 10746 10746 10745 10743 10741 10740 10738 10735 10732 10728 10725 10721 10717 10712 10707 10702 10699 10696 10693 10691 10689 10687 10684 10682 10679 10677 10674 10671 10668 10664 10661 10657 10652
10672 10678 10686 10693 10699 10708 10713 10718 10722 10723 10725 10728 10729 10731 10732 10734 10735 10734 10733 10731 10730 10728 10726 10723 10720 10716 10712 10708 10703 10699 10693 10689 10685 10682 10680 10677 10674 10671 10668 10664 10661 10657 10654 10652 10649 10646 10643 10639 10635
10663 10669 10676 10682 10689 10697 10704 10709 10711 10714 10714 10715 10718 10719 10722 10722 10722 10722 10720 10719 10718 10715 10713 10710 10706 10702 10698 10693 10689 10684 10679 10675 10671 10667 10664 10662 10658 10654 10651 10647 10644 10640 10637 10634 10630 10626 10622 10619 10614
10652 10660 10667 10673 10680 10690 10692 10699 10701 10701 10703 10705 10706 10708 10709 10709 10710 10709 10708 10706 10704 10702 10699 10696 10692 10687 10682 10678 10673 10669 10664 10660 10657 10653 10649 10645 10641 10637 10634 10629 10625 10622 10618 10614 10611 10606 10601 10596 10592
10646 10650 10657 10664 10672 10684 10681 10686 10694 10689 10691 10693 10695 10698 10698 10698 10698 10697 10694 10693 10692 10688 10685 10681 10676 10671 10667 10662 10658 10653 10649 10646 10642 10637 10633 10629 10624 10620 10616 10613 10609 10604 10599 10594 10590 10585 10580 10574 10570
10631 10639 10648 10654 10663 10669 10668 10678 10682 10680 10678 10681 10683 10683 10684 10685 10684 10682 10680 10679 10676 10672 10669 10665 10661 10656 10651 10647 10643 10639 10635 10631 10626 10622 10618 10614 10609 10604 10598 10592 10587 10582 10576 10571 10566 10562 10556 10548 10542
10623 10631 10636 10644 10650 10655 10661 10666 10667 10668 10667 10668 10669 10670 10672 10672 10670 10668 10665 10663 10660 10657 10653 10650 10645 10641 10636 10632 10628 10624 10619 10615 10610 10606 10600 10595 10589 10584 10578 10571 10565 10559 10551 10543 10539 10534 10528 10522 10515
10615 10618 10623 10632 10639 10644 10651 10653 10652 10654 10653 10654 10655 10656 10657 10657 10655 10652 10650 10648 10644 10641 10638 10634 10630 10625 10621 10616 10612 10607 10602 10597 10592 10586 10580 10574 10568 10561 10554 10548 10540 10533 10525 10514 10505 10497 10489 10483 10477
10603 10609 10614 10617 10627 10632 10637 10639 10640 10641 10640 10639 10641 10642 10642 10640 10638 10636 10634 10631 10628 10625 10621 10617 10613 10609 10605 10600 10594 10589 10583 10578 10572 10565 10558 10552 10545 10539 10530 10523 10516 10505 10495 10483 10472 10463 10454 10446 10439
10591 10597 10601 10606 10614 10616 10621 10628 10630 10628 10624 10626 10628 10627 10625 10623 10622 10620 10618 10615 10611 10607 10604 10601 10597 10593 10588 10583 10576 10569 10563 10557 10551 10544 10538 10531 10524 10514 10506 10497 10488 10475 10463 10453 10441 10431 10420 10411 10402